DAL1034 KATL-KJFK

Flight info

Callsign DAL1034
Flight time 1h 42m
Altitude 37000
Route PHIIL3 HRTWL Q64 SAWED Q108 SIE CAMRN5
Aircraft B739/M-SDE2E3FGHIRWXY/LB1

Departure

Time 2026-05-09 14:18
Airport Hartsfield Jackson Atlanta International Airport (KATL)

Arrival

Time 2026-05-09 16:01
Airport John F. Kennedy International Airport (KJFK)
Time Latitude Longitude Altitude Speed Heading
2026-05-09 13:52 33.64380 -84.43864 1027 ft 0 kts 271°
2026-05-09 14:04 33.64380 -84.43858 1027 ft 2 kts 271°
2026-05-09 14:05 33.64379 -84.43821 1028 ft 7 kts 271°
2026-05-09 14:05 33.64378 -84.43759 1028 ft 4 kts 271°
2026-05-09 14:05 33.64378 -84.43758 1027 ft 0 kts 271°
2026-05-09 14:10 33.64372 -84.43773 1026 ft 3 kts 232°
2026-05-09 14:10 33.64342 -84.43786 1023 ft 7 kts 186°
2026-05-09 14:10 33.64272 -84.43788 1023 ft 13 kts 179°
2026-05-09 14:11 33.64161 -84.43787 1022 ft 19 kts 180°
2026-05-09 14:11 33.64015 -84.43787 1020 ft 23 kts 179°
2026-05-09 14:11 33.63847 -84.43788 1019 ft 25 kts 181°
2026-05-09 14:11 33.63670 -84.43768 1018 ft 26 kts 160°
2026-05-09 14:12 33.63582 -84.43609 1015 ft 25 kts 90°
2026-05-09 14:12 33.63582 -84.43409 1009 ft 23 kts 90°
2026-05-09 14:12 33.63582 -84.43219 1008 ft 22 kts 90°
2026-05-09 14:12 33.63581 -84.43034 1007 ft 22 kts 90°
2026-05-09 14:13 33.63582 -84.42857 1005 ft 21 kts 90°
2026-05-09 14:14 33.63582 -84.41618 996 ft 24 kts 89°
2026-05-09 14:15 33.63582 -84.41486 989 ft 23 kts 90°
2026-05-09 14:15 33.63580 -84.41237 988 ft 22 kts 90°
2026-05-09 14:15 33.63581 -84.41113 988 ft 22 kts 90°
2026-05-09 14:15 33.63581 -84.40936 986 ft 21 kts 90°
2026-05-09 14:16 33.63581 -84.40845 989 ft 0 kts 90°
2026-05-09 14:16 33.63581 -84.40844 989 ft 1 kts 90°
2026-05-09 14:16 33.63580 -84.40804 987 ft 7 kts 95°
2026-05-09 14:16 33.63538 -84.40751 993 ft 12 kts 165°
2026-05-09 14:17 33.63475 -84.40764 987 ft 0 kts 222°
2026-05-09 14:17 33.63473 -84.40777 990 ft 4 kts 259°
2026-05-09 14:17 33.63470 -84.40991 988 ft 62 kts 270°
2026-05-09 14:17 33.63468 -84.41808 996 ft 131 kts 270°
2026-05-09 14:18 33.63452 -84.43125 1041 ft 185 kts 269°
2026-05-09 14:18 33.63466 -84.44833 1387 ft 221 kts 269°
2026-05-09 14:18 33.63469 -84.46810 1976 ft 251 kts 266°
2026-05-09 14:18 33.62946 -84.48902 2573 ft 278 kts 241°
2026-05-09 14:19 33.61994 -84.50876 3122 ft 260 kts 243°
2026-05-09 14:19 33.61176 -84.52746 3461 ft 250 kts 245°
2026-05-09 14:19 33.60413 -84.54576 4091 ft 249 kts 245°
2026-05-09 14:19 33.59641 -84.56449 4844 ft 249 kts 246°
2026-05-09 14:20 33.58659 -84.58159 5514 ft 256 kts 221°
2026-05-09 14:20 33.56986 -84.58957 6146 ft 270 kts 187°
2026-05-09 14:20 33.55084 -84.58778 6770 ft 276 kts 179°
2026-05-09 14:21 33.51236 -84.58509 7983 ft 280 kts 185°
2026-05-09 14:21 33.49274 -84.58411 8616 ft 286 kts 175°
2026-05-09 14:21 33.47398 -84.57494 9250 ft 301 kts 148°
2026-05-09 14:21 33.46004 -84.55566 9804 ft 317 kts 118°
2026-05-09 14:22 33.45527 -84.52955 10306 ft 326 kts 92°
2026-05-09 14:22 33.45534 -84.50227 10848 ft 329 kts 90°
2026-05-09 14:22 33.45580 -84.47497 11352 ft 334 kts 90°
2026-05-09 14:22 33.45615 -84.44693 11916 ft 338 kts 90°
2026-05-09 14:23 33.45625 -84.41860 12474 ft 341 kts 91°
2026-05-09 14:23 33.45616 -84.39004 13018 ft 344 kts 91°
2026-05-09 14:23 33.45600 -84.36157 13551 ft 347 kts 91°
2026-05-09 14:23 33.45661 -84.33233 14017 ft 352 kts 79°
2026-05-09 14:24 33.46274 -84.30392 14487 ft 353 kts 71°
2026-05-09 14:24 33.47012 -84.27574 14963 ft 356 kts 70°
2026-05-09 14:24 33.47760 -84.24769 15423 ft 359 kts 70°
2026-05-09 14:24 33.48519 -84.21902 15877 ft 363 kts 70°
2026-05-09 14:25 33.49276 -84.18995 16345 ft 366 kts 70°
2026-05-09 14:25 33.50022 -84.16094 16793 ft 369 kts 70°
2026-05-09 14:25 33.50777 -84.13128 17241 ft 372 kts 70°
2026-05-09 14:25 33.51533 -84.10142 17690 ft 376 kts 70°
2026-05-09 14:26 33.52294 -84.07128 18110 ft 379 kts 70°
2026-05-09 14:26 33.53060 -84.04087 18520 ft 382 kts 70°
2026-05-09 14:26 33.53830 -84.01023 18921 ft 385 kts 70°
2026-05-09 14:26 33.54597 -83.97971 19325 ft 388 kts 70°
2026-05-09 14:27 33.55376 -83.94866 19737 ft 390 kts 70°
2026-05-09 14:27 33.56161 -83.91732 20148 ft 393 kts 70°
2026-05-09 14:27 33.56953 -83.88572 20553 ft 396 kts 70°
2026-05-09 14:27 33.57748 -83.85392 20951 ft 398 kts 70°
2026-05-09 14:28 33.58552 -83.82243 21323 ft 400 kts 67°
2026-05-09 14:28 33.59602 -83.79147 21706 ft 400 kts 61°
2026-05-09 14:28 33.60807 -83.76111 22101 ft 402 kts 59°
2026-05-09 14:28 33.62040 -83.73076 22484 ft 405 kts 60°
2026-05-09 14:29 33.63238 -83.70037 22849 ft 408 kts 61°
2026-05-09 14:29 33.64434 -83.66912 23238 ft 411 kts 61°
2026-05-09 14:29 33.65597 -83.63804 23595 ft 414 kts 64°
2026-05-09 14:29 33.66450 -83.60453 23871 ft 421 kts 74°
2026-05-09 14:30 33.67088 -83.57004 24182 ft 424 kts 76°
2026-05-09 14:30 33.67679 -83.53507 24482 ft 427 kts 76°
2026-05-09 14:30 33.68272 -83.50009 24773 ft 429 kts 76°
2026-05-09 14:30 33.68880 -83.46535 25068 ft 432 kts 76°
2026-05-09 14:31 33.69520 -83.42990 25371 ft 434 kts 75°
2026-05-09 14:31 33.70175 -83.39434 25657 ft 437 kts 75°
2026-05-09 14:31 33.70840 -83.35854 25938 ft 439 kts 75°
2026-05-09 14:31 33.71509 -83.32260 26215 ft 442 kts 75°
2026-05-09 14:32 33.72173 -83.28684 26516 ft 443 kts 76°
2026-05-09 14:32 33.72846 -83.25054 26880 ft 443 kts 76°
2026-05-09 14:32 33.73515 -83.21431 27247 ft 443 kts 76°
2026-05-09 14:32 33.74183 -83.17811 27570 ft 444 kts 76°
2026-05-09 14:33 33.74948 -83.14223 27881 ft 443 kts 65°
2026-05-09 14:33 33.76367 -83.10986 28192 ft 436 kts 53°
2026-05-09 14:33 33.77971 -83.07950 28537 ft 435 kts 52°
2026-05-09 14:33 33.79619 -83.04884 28800 ft 437 kts 52°
2026-05-09 14:34 33.81272 -83.01791 29068 ft 439 kts 52°
2026-05-09 14:34 33.82912 -82.98682 29380 ft 439 kts 53°
2026-05-09 14:34 33.84536 -82.95567 29683 ft 439 kts 53°
2026-05-09 14:34 33.86153 -82.92441 29920 ft 441 kts 53°
2026-05-09 14:35 33.87750 -82.89341 30141 ft 442 kts 53°
2026-05-09 14:35 33.89373 -82.86185 30368 ft 442 kts 53°
2026-05-09 14:35 33.90992 -82.83032 30588 ft 442 kts 53°
2026-05-09 14:35 33.92603 -82.79895 30772 ft 443 kts 53°
2026-05-09 14:36 33.94226 -82.76734 30932 ft 444 kts 53°
2026-05-09 14:36 33.95857 -82.73556 31116 ft 445 kts 53°
2026-05-09 14:36 33.97489 -82.70372 31302 ft 445 kts 52°
2026-05-09 14:36 33.99100 -82.67223 31459 ft 447 kts 53°
2026-05-09 14:37 34.00727 -82.64019 31578 ft 449 kts 53°
2026-05-09 14:37 34.02359 -82.60787 31678 ft 452 kts 53°
2026-05-09 14:37 34.05648 -82.54253 31853 ft 458 kts 53°
2026-05-09 14:38 34.08974 -82.47637 32087 ft 462 kts 52°
2026-05-09 14:38 34.12320 -82.40977 32169 ft 472 kts 52°
2026-05-09 14:39 34.15752 -82.34130 32406 ft 476 kts 52°
2026-05-09 14:39 34.17463 -82.30705 32645 ft 475 kts 52°
2026-05-09 14:39 34.19175 -82.27278 32859 ft 475 kts 52°
2026-05-09 14:40 34.20861 -82.23901 33000 ft 476 kts 52°
2026-05-09 14:40 34.22577 -82.20465 33138 ft 477 kts 52°
2026-05-09 14:40 34.24293 -82.17025 33283 ft 477 kts 52°
2026-05-09 14:40 34.26012 -82.13580 33434 ft 477 kts 51°
2026-05-09 14:41 34.27739 -82.10146 33593 ft 478 kts 51°
2026-05-09 14:41 34.29472 -82.06713 33708 ft 478 kts 51°
2026-05-09 14:41 34.32961 -81.99806 33849 ft 483 kts 51°
2026-05-09 14:42 34.36462 -81.92851 33915 ft 489 kts 51°
2026-05-09 14:42 34.40027 -81.85748 33954 ft 497 kts 51°
2026-05-09 14:43 34.43600 -81.78598 34193 ft 497 kts 51°
2026-05-09 14:43 34.45390 -81.75008 34357 ft 496 kts 51°
2026-05-09 14:43 34.47180 -81.71417 34476 ft 497 kts 51°
2026-05-09 14:44 34.50765 -81.64223 34666 ft 499 kts 51°
2026-05-09 14:44 34.54355 -81.57004 34848 ft 500 kts 51°
2026-05-09 14:45 34.57946 -81.49772 34951 ft 503 kts 51°
2026-05-09 14:45 34.61550 -81.42496 34984 ft 508 kts 51°
2026-05-09 14:46 34.65226 -81.35062 35006 ft 515 kts 51°
2026-05-09 14:46 34.68922 -81.27567 35011 ft 522 kts 51°
2026-05-09 14:47 34.72655 -81.19976 35018 ft 528 kts 51°
2026-05-09 14:47 34.76459 -81.12224 35022 ft 535 kts 51°
2026-05-09 14:48 34.80279 -81.04351 35002 ft 544 kts 55°
2026-05-09 14:48 34.83562 -80.95966 35003 ft 556 kts 61°
2026-05-09 14:49 34.86606 -80.87221 34990 ft 564 kts 61°
2026-05-09 14:49 34.89720 -80.78452 34997 ft 570 kts 60°
2026-05-09 14:50 34.92966 -80.69575 34990 ft 575 kts 60°
2026-05-09 14:50 34.96262 -80.60619 34990 ft 580 kts 60°
2026-05-09 14:51 34.99541 -80.51659 34991 ft 583 kts 60°
2026-05-09 14:51 35.02851 -80.42563 34988 ft 586 kts 60°
2026-05-09 14:52 35.06163 -80.33432 35005 ft 588 kts 60°
2026-05-09 14:52 35.09448 -80.24352 34995 ft 587 kts 60°
2026-05-09 14:53 35.12742 -80.15221 34997 ft 586 kts 60°
2026-05-09 14:53 35.16027 -80.06093 35002 ft 585 kts 60°
2026-05-09 14:54 35.19302 -79.96969 34983 ft 586 kts 61°
2026-05-09 14:54 35.22553 -79.87885 34988 ft 586 kts 61°
2026-05-09 14:55 35.25818 -79.78729 34986 ft 585 kts 61°
2026-05-09 14:55 35.29044 -79.69655 35004 ft 585 kts 61°
2026-05-09 14:56 35.32296 -79.60486 35017 ft 586 kts 61°
2026-05-09 14:56 35.35541 -79.51308 35023 ft 587 kts 61°
2026-05-09 14:57 35.38767 -79.42154 35022 ft 587 kts 61°
2026-05-09 14:57 35.42003 -79.32944 35018 ft 587 kts 61°
2026-05-09 14:58 35.45232 -79.23728 35009 ft 588 kts 61°
2026-05-09 14:58 35.48441 -79.14544 35018 ft 588 kts 61°
2026-05-09 14:59 35.51656 -79.05312 35024 ft 587 kts 61°
2026-05-09 14:59 35.54860 -78.96084 35018 ft 586 kts 61°
2026-05-09 15:00 35.58039 -78.86900 35014 ft 586 kts 61°
2026-05-09 15:00 35.61232 -78.77656 35012 ft 586 kts 61°
2026-05-09 15:01 35.66017 -78.63846 35007 ft 586 kts 61°
2026-05-09 15:02 35.68675 -78.56156 35002 ft 587 kts 61°
2026-05-09 15:02 35.71867 -78.46885 35004 ft 587 kts 61°
2026-05-09 15:03 35.75046 -78.37615 35007 ft 587 kts 61°
2026-05-09 15:03 35.78183 -78.28395 35008 ft 587 kts 62°
2026-05-09 15:04 35.81327 -78.19122 35011 ft 588 kts 62°
2026-05-09 15:06 35.93826 -77.82000 35010 ft 585 kts 62°
2026-05-09 15:06 35.96950 -77.72705 35013 ft 583 kts 59°
2026-05-09 15:06 35.98941 -77.68423 35003 ft 566 kts 43°
2026-05-09 15:07 36.01504 -77.64841 35044 ft 553 kts 36°
2026-05-09 15:07 36.06819 -77.58024 35030 ft 554 kts 36°
2026-05-09 15:08 36.12150 -77.51044 35022 ft 557 kts 37°
2026-05-09 15:08 36.20036 -77.40399 35014 ft 559 kts 38°
2026-05-09 15:10 36.41753 -77.13180 35018 ft 549 kts 30°
2026-05-09 15:11 36.47521 -77.06939 35015 ft 550 kts 31°
2026-05-09 15:11 36.53216 -77.00610 35016 ft 552 kts 31°
2026-05-09 15:12 36.58919 -76.94179 35017 ft 552 kts 31°
2026-05-09 15:12 36.64603 -76.87748 35017 ft 552 kts 31°
2026-05-09 15:13 36.70305 -76.81296 35016 ft 552 kts 31°
2026-05-09 15:13 36.75961 -76.74890 35014 ft 552 kts 32°
2026-05-09 15:14 36.81649 -76.68436 35020 ft 552 kts 32°
2026-05-09 15:14 36.87287 -76.62022 35015 ft 551 kts 32°
2026-05-09 15:15 36.92974 -76.55541 35017 ft 551 kts 32°
2026-05-09 15:15 36.98615 -76.49099 34998 ft 551 kts 32°
2026-05-09 15:16 37.04284 -76.42609 34997 ft 551 kts 32°
2026-05-09 15:16 37.09936 -76.36125 35000 ft 550 kts 33°
2026-05-09 15:17 37.15545 -76.29679 34992 ft 550 kts 33°
2026-05-09 15:17 37.21192 -76.23174 35007 ft 550 kts 33°
2026-05-09 15:18 37.26834 -76.16661 35007 ft 550 kts 33°
2026-05-09 15:18 37.32479 -76.10131 35024 ft 551 kts 33°
2026-05-09 15:19 37.38083 -76.03633 35008 ft 550 kts 33°
2026-05-09 15:19 37.43714 -75.97089 35024 ft 550 kts 34°
2026-05-09 15:20 37.52133 -75.87283 35016 ft 550 kts 34°
2026-05-09 15:20 37.55060 -75.84239 34992 ft 536 kts 24°
2026-05-09 15:21 37.58208 -75.81766 35030 ft 529 kts 20°
2026-05-09 15:21 37.64585 -75.77248 35025 ft 527 kts 19°
2026-05-09 15:22 37.70972 -75.72615 35012 ft 528 kts 20°
2026-05-09 15:22 37.77246 -75.67874 35015 ft 528 kts 21°
2026-05-09 15:23 37.83518 -75.63115 35021 ft 527 kts 21°
2026-05-09 15:23 37.89697 -75.58024 35028 ft 531 kts 26°
2026-05-09 15:24 37.95747 -75.52641 35028 ft 531 kts 26°
2026-05-09 15:24 38.01808 -75.47328 35025 ft 529 kts 26°
2026-05-09 15:25 38.07901 -75.42096 35021 ft 526 kts 25°
2026-05-09 15:25 38.14032 -75.37130 35014 ft 524 kts 24°
2026-05-09 15:26 38.23268 -75.29628 35014 ft 522 kts 22°
2026-05-09 15:26 38.26457 -75.27753 35005 ft 500 kts
2026-05-09 15:26 38.29809 -75.26890 35048 ft 487 kts 358°
2026-05-09 15:27 38.33174 -75.26279 34906 ft 490 kts 358°
2026-05-09 15:27 38.36558 -75.25676 34710 ft 490 kts 358°
2026-05-09 15:27 38.39926 -75.25033 34459 ft 488 kts 359°
2026-05-09 15:27 38.43289 -75.24349 34231 ft 489 kts 360°
2026-05-09 15:28 38.46649 -75.23649 34007 ft 489 kts
2026-05-09 15:28 38.49973 -75.22948 33744 ft 490 kts
2026-05-09 15:28 38.53341 -75.22231 33459 ft 491 kts
2026-05-09 15:28 38.56721 -75.21507 33191 ft 492 kts
2026-05-09 15:29 38.60102 -75.20782 33014 ft 491 kts
2026-05-09 15:29 38.63459 -75.20061 32992 ft 487 kts
2026-05-09 15:29 38.70097 -75.18318 32959 ft 494 kts 15°
2026-05-09 15:30 38.73125 -75.16150 33001 ft 505 kts 30°
2026-05-09 15:30 38.75949 -75.13406 32996 ft 511 kts 32°
2026-05-09 15:30 38.78721 -75.10604 32780 ft 510 kts 33°
2026-05-09 15:30 38.81496 -75.07778 32183 ft 508 kts 33°
2026-05-09 15:31 38.84275 -75.04977 31318 ft 510 kts 33°
2026-05-09 15:31 38.87094 -75.02173 30336 ft 515 kts 33°
2026-05-09 15:31 38.89962 -74.99348 29191 ft 520 kts 33°
2026-05-09 15:31 38.92808 -74.96555 28021 ft 524 kts 33°
2026-05-09 15:32 38.95718 -74.93699 26878 ft 527 kts 33°
2026-05-09 15:32 38.98604 -74.90860 26278 ft 519 kts 34°
2026-05-09 15:32 39.01465 -74.88038 25651 ft 517 kts 34°
2026-05-09 15:32 39.04334 -74.85208 25056 ft 521 kts 34°
2026-05-09 15:33 39.07213 -74.82365 24461 ft 521 kts 34°
2026-05-09 15:33 39.10082 -74.79524 23866 ft 515 kts 34°
2026-05-09 15:33 39.12863 -74.76647 23232 ft 510 kts 36°
2026-05-09 15:33 39.15537 -74.73752 22562 ft 504 kts 37°
2026-05-09 15:34 39.18191 -74.70827 21875 ft 498 kts 37°
2026-05-09 15:34 39.20809 -74.67940 21141 ft 492 kts 37°
2026-05-09 15:34 39.23408 -74.65092 20413 ft 487 kts 37°
2026-05-09 15:34 39.25993 -74.62276 19716 ft 483 kts 37°
2026-05-09 15:35 39.28549 -74.59500 19302 ft 480 kts 37°
2026-05-09 15:35 39.31064 -74.56773 19166 ft 473 kts 37°
2026-05-09 15:35 39.33571 -74.54050 19045 ft 467 kts 37°
2026-05-09 15:35 39.36064 -74.51340 19000 ft 467 kts 37°
2026-05-09 15:36 39.38549 -74.48637 19006 ft 465 kts 37°
2026-05-09 15:36 39.41034 -74.45929 18997 ft 466 kts 37°
2026-05-09 15:36 39.43481 -74.43261 18988 ft 466 kts 37°
2026-05-09 15:36 39.45966 -74.40548 18991 ft 467 kts 37°
2026-05-09 15:37 39.48454 -74.37830 18991 ft 467 kts 37°
2026-05-09 15:37 39.50934 -74.35116 18993 ft 467 kts 37°
2026-05-09 15:37 39.53419 -74.32396 18998 ft 467 kts 37°
2026-05-09 15:37 39.55906 -74.29671 18993 ft 467 kts 37°
2026-05-09 15:38 39.58361 -74.26978 18991 ft 467 kts 37°
2026-05-09 15:38 39.60848 -74.24247 18995 ft 467 kts 37°
2026-05-09 15:38 39.63328 -74.21522 18989 ft 466 kts 37°
2026-05-09 15:38 39.65761 -74.18841 18931 ft 452 kts 37°
2026-05-09 15:39 39.68120 -74.16240 18795 ft 437 kts 36°
2026-05-09 15:39 39.70418 -74.13705 18443 ft 429 kts 36°
2026-05-09 15:39 39.72690 -74.11202 17886 ft 427 kts 36°
2026-05-09 15:39 39.74955 -74.08704 17252 ft 426 kts 37°
2026-05-09 15:40 39.77183 -74.06245 16670 ft 424 kts 37°
2026-05-09 15:40 39.79430 -74.03761 16125 ft 421 kts 37°
2026-05-09 15:40 39.81657 -74.01295 15590 ft 419 kts 37°
2026-05-09 15:40 39.83866 -73.98860 14991 ft 411 kts 36°
2026-05-09 15:41 39.86233 -73.96819 14151 ft 406 kts 25°
2026-05-09 15:41 39.88699 -73.95129 13285 ft 404 kts 24°
2026-05-09 15:41 39.91201 -73.93463 12514 ft 399 kts 24°
2026-05-09 15:41 39.93652 -73.91803 11832 ft 392 kts 25°
2026-05-09 15:42 39.96040 -73.90144 11294 ft 383 kts 26°
2026-05-09 15:42 39.98298 -73.88547 11106 ft 364 kts 26°
2026-05-09 15:42 40.00461 -73.87009 11001 ft 344 kts 26°
2026-05-09 15:42 40.02501 -73.85556 10982 ft 326 kts 26°
2026-05-09 15:43 40.04490 -73.84137 10998 ft 325 kts 26°
2026-05-09 15:43 40.06478 -73.82721 11005 ft 325 kts 26°
2026-05-09 15:43 40.08459 -73.81291 11008 ft 325 kts 27°
2026-05-09 15:43 40.10439 -73.79845 11010 ft 325 kts 27°
2026-05-09 15:44 40.12393 -73.78411 11008 ft 326 kts 27°
2026-05-09 15:44 40.14380 -73.76952 10866 ft 327 kts 27°
2026-05-09 15:44 40.16361 -73.75499 10712 ft 324 kts 27°
2026-05-09 15:44 40.18333 -73.74058 10564 ft 323 kts 27°
2026-05-09 15:45 40.20298 -73.72629 10402 ft 323 kts 27°
2026-05-09 15:45 40.22270 -73.71201 10235 ft 323 kts 27°
2026-05-09 15:45 40.24215 -73.69802 10070 ft 323 kts 27°
2026-05-09 15:45 40.26194 -73.68388 9908 ft 324 kts 27°
2026-05-09 15:46 40.28178 -73.66981 9735 ft 323 kts 27°
2026-05-09 15:46 40.30160 -73.65581 9516 ft 324 kts 27°
2026-05-09 15:46 40.32146 -73.64181 9240 ft 324 kts 27°
2026-05-09 15:46 40.34122 -73.62790 8970 ft 320 kts 27°
2026-05-09 15:47 40.36071 -73.61419 8700 ft 316 kts 27°
2026-05-09 15:47 40.37996 -73.60063 8433 ft 312 kts 27°
2026-05-09 15:47 40.39875 -73.58739 8043 ft 308 kts 27°
2026-05-09 15:47 40.41767 -73.57404 7504 ft 309 kts 27°
2026-05-09 15:48 40.43661 -73.56066 7013 ft 307 kts 27°
2026-05-09 15:48 40.45534 -73.54741 6549 ft 305 kts 27°
2026-05-09 15:48 40.46773 -73.53864 6206 ft 305 kts 27°
2026-05-09 15:48 40.48668 -73.52520 5450 ft 313 kts 27°
2026-05-09 15:49 40.50600 -73.51143 4740 ft 318 kts 27°
2026-05-09 15:49 40.53151 -73.49305 4254 ft 307 kts 27°
2026-05-09 15:49 40.54399 -73.48398 4151 ft 298 kts 27°
2026-05-09 15:49 40.56317 -73.47461 4025 ft 293 kts
2026-05-09 15:50 40.58309 -73.47229 4009 ft 284 kts 358°
2026-05-09 15:50 40.60271 -73.47103 4036 ft 280 kts 357°
2026-05-09 15:50 40.62201 -73.46994 4029 ft 282 kts 357°
2026-05-09 15:50 40.64165 -73.46884 4030 ft 282 kts 357°
2026-05-09 15:51 40.66131 -73.46776 4024 ft 283 kts 357°
2026-05-09 15:51 40.68104 -73.46562 3996 ft 288 kts
2026-05-09 15:51 40.69994 -73.45773 4020 ft 289 kts 16°
2026-05-09 15:51 40.71890 -73.44866 4009 ft 289 kts 17°
2026-05-09 15:52 40.75604 -73.43053 3989 ft 268 kts 17°
2026-05-09 15:52 40.77274 -73.42219 3980 ft 253 kts 17°
2026-05-09 15:52 40.78949 -73.41800 4002 ft 239 kts 348°
2026-05-09 15:53 40.80443 -73.42486 3928 ft 219 kts 315°
2026-05-09 15:53 40.81330 -73.43961 3541 ft 197 kts 281°
2026-05-09 15:53 40.81543 -73.45712 2971 ft 193 kts 268°
2026-05-09 15:53 40.81612 -73.47495 2439 ft 195 kts 268°
2026-05-09 15:54 40.81655 -73.49259 2066 ft 196 kts 268°
2026-05-09 15:54 40.81678 -73.51079 2058 ft 199 kts 267°
2026-05-09 15:54 40.81692 -73.52894 2009 ft 196 kts 267°
2026-05-09 15:54 40.81712 -73.54702 2008 ft 197 kts 267°
2026-05-09 15:55 40.81739 -73.56522 2009 ft 199 kts 267°
2026-05-09 15:55 40.81770 -73.58346 2001 ft 198 kts 268°
2026-05-09 15:55 40.81793 -73.60133 1998 ft 196 kts 267°
2026-05-09 15:55 40.81574 -73.61850 1974 ft 182 kts 236°
2026-05-09 15:56 40.80738 -73.62918 2021 ft 157 kts 223°
2026-05-09 15:56 40.79948 -73.63800 1954 ft 145 kts 212°
2026-05-09 15:56 40.79017 -73.64365 1990 ft 150 kts 210°
2026-05-09 15:56 40.78096 -73.65001 1998 ft 147 kts 212°
2026-05-09 15:57 40.77213 -73.65646 2020 ft 144 kts 213°
2026-05-09 15:57 40.76342 -73.66297 1989 ft 144 kts 213°
2026-05-09 15:57 40.75483 -73.66951 1999 ft 144 kts 213°
2026-05-09 15:57 40.74618 -73.67616 2004 ft 144 kts 213°
2026-05-09 15:58 40.73755 -73.68285 1938 ft 143 kts 213°
2026-05-09 15:58 40.72897 -73.68951 1819 ft 143 kts 212°
2026-05-09 15:58 40.72034 -73.69620 1609 ft 144 kts 212°
2026-05-09 15:58 40.71163 -73.70299 1492 ft 146 kts 211°
2026-05-09 15:59 40.70283 -73.70982 1314 ft 147 kts 213°
2026-05-09 15:59 40.69424 -73.71652 1151 ft 138 kts 212°
2026-05-09 15:59 40.68619 -73.72283 1052 ft 133 kts 212°
2026-05-09 15:59 40.67834 -73.72898 913 ft 135 kts 211°
2026-05-09 16:00 40.67014 -73.73539 747 ft 138 kts 210°
2026-05-09 16:00 40.66465 -73.73971 595 ft 139 kts 209°
2026-05-09 16:00 40.65360 -73.74836 296 ft 139 kts 208°
2026-05-09 16:00 40.64546 -73.75472 64 ft 133 kts 209°
2026-05-09 16:01 40.63862 -73.76002 20 ft 73 kts 210°
2026-05-09 16:01 40.63582 -73.76217 21 ft 40 kts 211°
2026-05-09 16:01 40.63373 -73.76388 24 ft 29 kts 219°
2026-05-09 16:01 40.63254 -73.76593 20 ft 28 kts 242°
2026-05-09 16:02 40.63283 -73.76819 19 ft 26 kts 300°
2026-05-09 16:02 40.63456 -73.77202 20 ft 23 kts 301°
2026-05-09 16:02 40.63530 -73.77361 20 ft 14 kts 301°
2026-05-09 16:03 40.63577 -73.77467 21 ft 13 kts 300°
2026-05-09 16:03 40.63623 -73.77568 20 ft 13 kts 304°
2026-05-09 16:03 40.63651 -73.77620 20 ft 0 kts 305°
2026-05-09 16:03 40.63659 -73.77635 19 ft 7 kts 304°
2026-05-09 16:04 40.63636 -73.77724 19 ft 15 kts 217°
2026-05-09 16:04 40.63516 -73.77819 20 ft 24 kts 211°
2026-05-09 16:04 40.63410 -73.77962 20 ft 17 kts 257°
2026-05-09 16:04 40.63446 -73.78129 20 ft 18 kts 299°
2026-05-09 16:05 40.63528 -73.78265 20 ft 13 kts 353°
2026-05-09 16:05 40.63635 -73.78254 20 ft 11 kts 357°
2026-05-09 16:05 40.63665 -73.78235 20 ft 3 kts 71°
2026-05-09 16:05 40.63673 -73.78159 20 ft 7 kts 83°
2026-05-09 16:06 40.63673 -73.78157 20 ft 0 kts 83°